Overview Statistics Trail Chart Weather Telemetry Raw packets
 

This is the latest recevied weather packets stored in our database for station/object N3EG. If no packets are shown the sender has not sent any weather packets the latest 10 day(s).

<< 82 83 84 85 86 87 88 >>
Time Temp. Humidity Pressure Rain* Wind** Luminosity Snow
1788055803 17.78° C 73% 1019.8 hPa 0 mm - - -
1788055502 17.78° C 73% 1019.8 hPa 0 mm - - -
1788055203 18.33° C 71% 1019.7 hPa 0 mm - - -
1788054903 18.33° C 71% 1019.8 hPa 0 mm - - -
1788054602 18.33° C 70% 1019.7 hPa 0 mm - - -
1788054303 18.33° C 69% 1019.7 hPa 0 mm - - -
1788054002 18.33° C 70% 1019.7 hPa 0 mm - - -
1788053702 18.89° C 70% 1019.7 hPa 0 mm - - -
1788053405 18.89° C 71% 1019.7 hPa 0 mm - - -
1788053102 18.89° C 70% 1019.7 hPa 0 mm - - -
1788052803 18.89° C 69% 1019.7 hPa 0 mm - - -
1788052503 18.89° C 69% 1019.7 hPa 0 mm - - -
1788052202 18.89° C 69% 1019.6 hPa 0 mm - - -
1788051903 18.89° C 68% 1019.7 hPa 0 mm - - -
1788051603 19.44° C 68% 1019.7 hPa 0 mm - - -
1788051302 19.44° C 69% 1019.7 hPa 0 mm - - -
1788051003 19.44° C 68% 1019.7 hPa 0 mm - - -
1788050703 18.89° C 69% 1019.7 hPa 0 mm - - -
1788050402 18.89° C 69% 1019.7 hPa 0 mm - - -
1788050103 18.89° C 69% 1019.7 hPa 0 mm - - -
1788049803 19.44° C 67% 1019.6 hPa 0 mm - - -
1788049502 19.44° C 66% 1019.5 hPa 0 mm - - -
1788049203 20° C 65% 1019.6 hPa 0 mm - - -
1788048903 20° C 66% 1019.4 hPa 0 mm - - -
1788048602 20° C 67% 1019.4 hPa 0 mm - - -

* Rain latest hour (hover to see other rain measurements)
** Current wind speed in m/s (hover to see current wind gust speed)